This demonstration page uses our WeatherBlox Daily Observations layout. Learn more.

Left ArrowRight Arrow

Hourly Observations for August 13, 2016

Temp ( °F °C ) Dew Point ( °F °C ) Humidity (%) Winds ( mph kmh ) Pressure ( in mb ) Visibility ( mi km ) Precip ( " mm )
12:15 am 00:15 Mostly Cloudy 79 26 72 22 79 79 SSW 8 13 29.85 1011 10 16.0934 N/A
12:34 am 00:34 Partly Cloudy 79 26 73 23 84 84 SSW 7 11 29.85 1011 10 16.0934 N/A
12:54 am 00:54 Clear 79 26 73 23 84 84 SSW 8 13 29.85 1011 10 16.0934 N/A
1:15 am 01:15 Clear 77 25 73 23 89 89 SSW 6 9 29.85 1011 10 16.0934 N/A
1:34 am 01:34 Clear 77 25 73 23 89 89 SSW 6 9 29.85 1011 10 16.0934 N/A
1:54 am 01:54 Partly Cloudy 77 25 73 23 89 89 SSW 6 9 29.85 1011 10 16.0934 N/A
2:15 am 02:15 Cloudy 77 25 72 22 83 83 SSW 7 11 29.85 1011 10 16.0934 N/A
2:34 am 02:34 Cloudy 77 25 72 22 83 83 SSW 6 9 29.85 1011 10 16.0934 N/A
2:54 am 02:54 Cloudy 77 25 72 22 83 83 SSW 7 11 29.83 1010 10 16.0934 N/A
3:15 am 03:15 Cloudy 77 25 72 22 83 83 S 7 11 29.83 1010 10 16.0934 N/A
3:34 am 03:34 Cloudy 77 25 72 22 83 83 S 8 13 29.8 1009 10 16.0934 N/A
3:54 am 03:54 Mostly Cloudy 77 25 72 22 83 83 S 8 13 29.8 1009 10 16.0934 N/A
4:14 am 04:14 Partly Cloudy 75 24 72 22 89 89 S 6 9 29.8 1009 10 16.0934 N/A
4:34 am 04:34 Clear 75 24 72 22 89 89 SSW 7 11 29.8 1009 10 16.0934 N/A
4:54 am 04:54 Clear 75 24 72 22 89 89 SSW 7 11 29.8 1009 10 16.0934 N/A
5:14 am 05:14 Mostly Cloudy 75 24 72 22 89 89 S 7 11 29.83 1010 10 16.0934 N/A
5:34 am 05:34 Cloudy 75 24 72 22 89 89 SSW 7 11 29.83 1010 10 16.0934 N/A
5:54 am 05:54 Cloudy 75 24 72 22 89 89 S 7 11 29.83 1010 10 16.0934 N/A
6:14 am 06:14 Cloudy 75 24 73 23 94 94 S 7 11 29.83 1010 10 16.0934 N/A
6:34 am 06:34 Cloudy 75 24 73 23 94 94 S 7 11 29.83 1010 10 16.0934 N/A
6:55 am 06:55 Cloudy 75 24 73 23 94 94 S 8 13 29.83 1010 10 16.0934 N/A
7:14 am 07:14 Cloudy 75 24 73 23 94 94 S 8 13 29.83 1010 10 16.0934 N/A
7:34 am 07:34 Cloudy 75 24 73 23 94 94 S 6 9 29.85 1011 10 16.0934 N/A
7:55 am 07:55 Cloudy 75 24 73 23 94 94 SSW 8 13 29.85 1011 10 16.0934 N/A
8:14 am 08:14 Cloudy 75 24 73 23 94 94 SSW 7 11 29.85 1011 10 16.0934 N/A
8:34 am 08:34 Cloudy 77 25 73 23 89 89 S 9 15 29.85 1011 10 16.0934 N/A
8:55 am 08:55 Cloudy 77 25 73 23 89 89 SSW 8 13 29.85 1011 10 16.0934 N/A
9:14 am 09:14 Cloudy 77 25 73 23 89 89 SSW 7 11 29.85 1011 10 16.0934 N/A
9:34 am 09:34 Cloudy 77 25 73 23 89 89 SSW 8 13 29.85 1011 10 16.0934 N/A
9:55 am 09:55 Cloudy 77 25 73 23 89 89 SSW 7 11 29.85 1011 7 11.26538 N/A
10:14 am 10:14 Cloudy 77 25 75 24 94 94 SSW 8 13 29.85 1011 7 11.26538 N/A
10:34 am 10:34 Cloudy 79 26 75 24 89 89 SSW 12 19 29.85 1011 10 16.0934 N/A
10:55 am 10:55 Cloudy 79 26 75 24 89 89 S 12 19 29.85 1011 10 16.0934 N/A
11:14 am 11:14 Cloudy 79 26 75 24 89 89 SSW 10 17 29.85 1011 10 16.0934 N/A
11:34 am 11:34 Cloudy 79 26 75 24 89 89 SSW 10 17 29.85 1011 10 16.0934 N/A
11:55 am 11:55 Cloudy 79 26 75 24 89 89 SW 15 24 29.85 1011 10 16.0934 N/A
12:14 pm 12:14 Cloudy 77 25 75 24 94 94 SW 14 22 29.88 1012 1.75 2.816345 N/A
12:34 pm 12:34 Cloudy 75 24 73 23 94 94 SW 10 17 29.88 1012 4 6.43736 N/A
12:54 pm 12:54 Cloudy 75 24 73 23 94 94 SW 9 15 29.88 1012 4 6.43736 N/A
1:14 pm 13:14 Mostly Cloudy 75 24 73 23 94 94 SW 9 15 29.88 1012 7 11.26538 N/A
1:35 pm 13:35 Mostly Cloudy 75 24 73 23 94 94 SW 10 17 29.88 1012 10 16.0934 N/A
1:54 pm 13:54 Partly Cloudy 75 24 73 23 94 94 SW 10 17 29.85 1011 10 16.0934 N/A
2:14 pm 14:14 Mostly Cloudy 77 25 73 23 89 89 SSW 10 17 29.85 1011 10 16.0934 N/A
2:34 pm 14:34 Mostly Cloudy 77 25 73 23 89 89 SW 10 17 29.85 1011 10 16.0934 N/A
2:54 pm 14:54 Mostly Cloudy 77 25 73 23 89 89 SSW 9 15 29.88 1012 10 16.0934 N/A
3:15 pm 15:15 Cloudy 77 25 73 23 89 89 SW 14 22 29.88 1012 10 16.0934 N/A
3:34 pm 15:34 Mostly Cloudy 77 25 73 23 89 89 SW 10 17 29.88 1012 10 16.0934 N/A
3:54 pm 15:54 Mostly Cloudy 77 25 73 23 89 89 SSW 8 13 29.88 1012 10 16.0934 N/A
4:15 pm 16:15 Mostly Cloudy 75 24 72 22 89 89 SW 9 15 29.85 1011 10 16.0934 N/A
4:34 pm 16:34 Mostly Cloudy 75 24 72 22 89 89 SW 12 19 29.88 1012 10 16.0934 N/A
4:54 pm 16:54 Mostly Cloudy 75 24 72 22 89 89 SSW 12 19 29.88 1012 10 16.0934 N/A
5:15 pm 17:15 Cloudy 75 24 72 22 89 89 SSW 12 19 29.88 1012 10 16.0934 N/A
5:34 pm 17:34 Cloudy 73 23 72 22 94 94 SSW 8 13 29.88 1012 3 4.82802 N/A
5:54 pm 17:54 Cloudy 73 23 72 22 94 94 SW 9 15 29.88 1012 5 8.0467 N/A
6:15 pm 18:15 Cloudy 73 23 72 22 94 94 SW 9 15 29.88 1012 10 16.0934 N/A
6:34 pm 18:34 Cloudy 73 23 72 22 94 94 SW 6 9 29.88 1012 10 16.0934 N/A
6:54 pm 18:54 Cloudy 73 23 72 22 94 94 SW 6 9 29.88 1012 7 11.26538 N/A
7:14 pm 19:14 Cloudy 73 23 72 22 94 94 WSW 6 9 29.91 1013 5 8.0467 N/A
7:34 pm 19:34 Cloudy 73 23 73 23 100 100 SW 5 7 29.91 1013 5 8.0467 N/A
7:55 pm 19:55 Cloudy 73 23 73 23 100 100 WSW 3 6 29.91 1013 5 8.0467 N/A
8:14 pm 20:14 Cloudy 73 23 72 22 94 94 SW 3 6 29.91 1013 10 16.0934 N/A
8:34 pm 20:34 Cloudy 73 23 72 22 94 94 SW 6 9 29.91 1013 7 11.26538 N/A
8:55 pm 20:55 Cloudy 73 23 72 22 94 94 SSW 5 7 29.91 1013 7 11.26538 N/A
9:14 pm 21:14 Cloudy 73 23 72 22 94 94 SSW 6 9 29.91 1013 10 16.0934 N/A
9:34 pm 21:34 Cloudy 73 23 72 22 94 94 SSW 6 9 29.91 1013 10 16.0934 N/A
9:54 pm 21:54 Cloudy 73 23 72 22 94 94 SW 9 15 29.94 1014 10 16.0934 N/A
10:14 pm 22:14 Cloudy 73 23 72 22 94 94 WSW 5 7 29.94 1014 10 16.0934 N/A
10:35 pm 22:35 Cloudy 72 22 72 22 100 100 SW 5 7 29.94 1014 10 16.0934 N/A
10:54 pm 22:54 Partly Cloudy 72 22 72 22 100 100 SSW 7 11 29.94 1014 10 16.0934 N/A
11:14 pm 23:14 Mostly Cloudy 72 22 72 22 100 100 SSW 5 7 29.94 1014 10 16.0934 N/A
11:35 pm 23:35 Cloudy 72 22 72 22 100 100 SW 5 7 29.97 1015 10 16.0934 N/A
11:54 pm 23:54 Cloudy 72 22 72 22 100 100 WSW 7 11 29.97 1015 10 16.0934 N/A

Powered by AerisWeather